Tracking 22879 objects as of 22-Apr-2021
HD Live streaming from Space Station
objects crossing your sky now

XJS H

Track XJS H now!
10-day predictions


NORAD ID: 45612
Int'l Code: 2020-032B
Perigee: 478.9 km
Apogee: 488.9 km
Inclination: 35.0 °
Period: 94.1 minutes
Semi major axis: 6854 km
RCS: Unknown
Launch date: May 29, 2020
Source: People's Republic of China (PRC)
Launch site: Xichang Space Center, China (XSC)
aabbcc
Your satellite tracking list
Your tracking list is empty




NASA's NSSDC Master Catalog

Two Line Element Set (TLE):
1 45612U 20032B   21112.09820097  .00004099  00000-0  14016-3 0  9994
2 45612  35.0345 251.9127 0007356 176.5712 350.1710 15.29680576 50086
Source of the keplerian elements: AFSPC